Regional Weather Roundup
Issued by NWS Charleston, SC

Current Version | Previous Version | Graphics & Text | Print | Product List | Glossary On
Versions: 1 2 3 4 5 6 7 8 9 10 11 12 13 14 15 16 17 18 19 20 21 22 23 24 25 26 27 28 29 30 31 32 33 34 35 36 37 38 39 40 41 42 43 44 45 46 47 48 49 50
327
ASUS42 KCHS 270213
RWRCHS

REGIONAL WEATHER ROUNDUP
NATIONAL WEATHER SERVICE CHARLESTON SC
1000 PM EDT FRI AUG 26 2016

NOTE: "FAIR" INDICATES FEW OR NO CLOUDS BELOW 12,000 FEET WITH NO
SIGNIFICANT WEATHER AND/OR OBSTRUCTIONS TO VISIBILITY.

NOT ALL STATIONS ARE QUALITY CONTROLLED. USE DATA WITH CAUTION...
ESPECIALLY DEWPOINT OBSERVATIONS.

SCZ027-030-031-034>040-042>050-270300-
...SOUTHEAST SOUTH CAROLINA...

CITY           SKY/WX    TMP DP  RH WIND       PRES   REMARKS
N CHARLESTON   CLEAR     80  71  74 SE6       30.07R
WATERFRONT PRK   N/A     82  75  79 E7        30.04R
MOUNT PLEASANT FAIR      75  73  94 CALM      30.07R
JOHNS ISLAND   FAIR      79  73  83 CALM      30.07R
PINOPOLIS        N/A     81  73  78 CALM      29.99R
MONCKS CORNER  FAIR      75  72  88 CALM      30.07R
SUMMERVILLE    FAIR      77  72  83 CALM      30.08R
BEAUFORT MCAS  CLEAR     80  74  81 E3        30.07R
BEAUFORT ARPT  FAIR      77  72  83 E3        30.07R
HILTON HEAD IS PTCLDY    81  72  74 CALM      30.08R
WALTERBORO     CLEAR     81  72  74 S3        30.08R
ALLENDALE      FAIR      82  72  69 S5        30.06R

...SOUTHERN MIDLANDS AND PEE DEE...

CITY           SKY/WX    TMP DP  RH WIND       PRES   REMARKS
GEORGETOWN     FAIR      73  72  94 CALM      30.07R
KINGSTREE      FAIR      77  70  78 SE3       30.07R
ORANGEBURG     CLEAR     81  72  74 S5        30.07R
BARNWELL       NOT AVBL
AIKEN          FAIR      81  70  69 CALM      30.11R
MANNING        FAIR      79  72  78 CALM      30.07R
COLUMBIA       CLEAR     85  71  63 SW3       30.06R HX  90
SUMTER         CLEAR     82  73  73 S3        30.05R
FLORENCE       CLEAR     80  72  76 SE5       30.07R
MYRTLE BEACH   CLEAR     81  66  61 SE8       30.07S
N MYRTLE BEACH CLEAR     82  72  71 E6        30.06R

$$

GAZ063-065-086>088-099>101-113>116-118-119-134>141-150-270300-
...SOUTHEAST GEORGIA...

CITY           SKY/WX    TMP DP  RH WIND       PRES   REMARKS
SAVANNAH ARPT  PTCLDY    79  70  74 E6        30.07R
HUNTER AAF     CLEAR     78  73  86 E5        30.04R
FORT STEWART   CLEAR     75  70  85 CALM      30.04R
STATESBORO     CLEAR     81  73  77 CALM      30.07R
SYLVANIA       NOT AVBL
CLAXTON        FAIR      76  72  85 CALM      30.07R

...CSRA...CENTRAL AND FAR SOUTHEAST GEORGIA...

CITY           SKY/WX    TMP DP  RH WIND       PRES   REMARKS
THOMSON        CLEAR     82  75  81 MISG      30.12R
AUGUSTA-BUSH   CLEAR     77  74  90 SE3       30.05R
AUGUSTA-DANIEL CLEAR     87  70  56 E3        30.08R HX  92
SWAINSBORO     FAIR      82  70  65 S6        30.08R
VIDALIA        CLEAR     81  73  78 SE3       30.07R
EASTMAN        FAIR      82  58  44 S5        30.08R
HAZLEHURST     FAIR      82  71  71 CALM      30.06R
ALMA           PTCLDY    75  67  76 E3        30.06R
WAYCROSS         N/A     79  72  79 E5        30.06R
JESUP          FAIR      73  72  94 CALM      30.07R
BAXLEY         FAIR      79  72  78 CALM      30.07R
BRUNSWICK      CLEAR     73  72  94 CALM      30.06S
SAINT SIMONS   CLEAR     81  68  64 E6        30.05R

$$

SCZ027-028-034-036>038-045-046-048>050-GAZ119-141-270300-
...LAKE AND SUPPLEMENTAL COASTAL OBSERVATIONS...

STATION/POSITION TIME  TEMP    WIND        PRES    WAVE   SWELL
                       AIR SEA DIR/SP/G            HT/PER HT/PER/DIR
                 (UTC) (F)     (DEG/KT/KT) (MB)    (FT/S) (FT/S/D)
WINYAH BAY       0045   82     110/  6     1017.0
LAKE MURRAY      0100   88     120/  2/  5 1016.6R
ACE BASIN NERRS  NOT AVBL
FORT PULASKI     0100   82 86   80/ 10/ 11   N/A
SAPELO ISLAND    0100   79      80/  3     1017.0S

$$

ANZ835-935-AMZ111-154-330-350-352-354-370-450-454-472-270300-
...C-MAN AND BUOY OBSERVATIONS...

STATION/POSITION TIME  TEMP    WIND        PRES    WAVE   SWELL
                       AIR SEA DIR/SP/G            HT/PER HT/PER/DIR
                 (UTC) (F)     (DEG/KT/KT) (MB)    (FT/S) (FT/S/D)
BUOY 41004       0150   82 83   80/ 10/ 14 1017.3R   3/ 8   2/100/ 8
BUOY 41008       0150   83 85   90/ 10/ 12 1017.5R   3/ 6   3/110/ 6
FOLLY BEACH CMAN 0200   82      90/  8/ 10 1018.5R
CAPERS NEARSHORE 0108   82 85   90/ 10/ 14 1017.2R
FRIPP NEARSHORE  0108   82 86   90/ 10/ 16 1017.2R


STATION/POSITION TIME  TEMP    WIND        PRES    WAVE   SWELL
                       AIR SEA DIR/SP/G            HT/PER HT/PER/DIR
                 (UTC) (F)     (DEG/KT/KT) (MB)    (FT/S) (FT/S/D)
5E ST. MARYS GA  0101      85                N/A     3/ 8
FRYING PAN BUOY  0100   82 85   80/ 10/ 12 1017.3R
BUOY 41025       0150   82 85  140/  4/  6 1018.7R   2/ 8   2/ 90/ 8
CAPE LOOKOUT NC  0200   81     140/  6/  8 1018.2R
BUOY 41002       0150   82 84   90/ 16/ 17 1016.3R   5/10   5/120/10
BUOY 41010       NOT AVBL
ST AUGUSTINE FL  0200   82 84   80/ 10/ 11 1018.0R


$$




USA.gov is the U.S. government's official web portal to all federal, state and local government web resources and services.